{"data":{"norad_id":59182,"epoch":"2026-09-19T22:41:52.854432Z","epoch_age_seconds":206694,"freshness":"STALE","line1":"1 59182U 24045E   26262.94575063  .00010952  00000+0  40753-3 0  9995","line2":"2 59182  43.0020  75.2049 0000873 268.9039  91.1713 15.27530607142878","mean_motion":15.27530607,"eccentricity":8.73e-5,"inclination_deg":43.002,"raan_deg":75.2049,"arg_perigee_deg":268.9039,"mean_anomaly_deg":91.1713,"bstar":0.00040753,"rev_number":14287,"period_min":94.269796847351,"perigee_km":482.59800597776,"apogee_km":483.79599489424,"semimajor_km":6861.334000436,"source":"CELESTRAK","updated_at":"2026-09-21T09:00:34.062487Z"}}